Location: St. Louis
(38.6270°N, 90.1994°W)
Time: 14:01:50
(UTC-06:00)

S-56A Canister/Altair - Pass Details

Date: 06 December 2021
Orbit: 633 x 2499 km, 38.9° (Epoch: 19 January)

Event Time Altitude Azimuth Distance (km) Brightness Sun altitude
Rises 23:19:36 0° 247° (WSW) 5,665 - -72.6°
Reaches altitude 10° 23:23:43 10° 246° (WSW) 4,421 - -72.9°
Maximum altitude 23:35:05 75° 164° (SSE) 1,495 - -73.6°
Drops below altitude 10° 23:42:25 10° 80° (E) 2,944 - -73.9°
Sets 23:44:40 0° 78° (ENE) 3,708 - -73.9°
